Schneifelwetter: Wetterstation Hallschlag, 537 m . NN
Wetterdaten: Donnerstag, 03.11.2011
Datum Zeit Temp. A. Feuchte A. Luftdruck Regen Wind Richtung Richtung Sonnenschein Helligkeit T Regen Taupunkt Windchill
03.11.2011 00:00 10,5 C 92 % 1006 hPa 0,0 l/m 16,3 km/h (3 Bft) S22.5 175 0 min 0 lux 0 min 9,3 C 5,2 C
03.11.2011 00:15 10,4 C 92 % 1006 hPa 0,0 l/m 18,5 km/h (3 Bft) S22.5 175 0 min 0 lux 0 min 9,2 C 4,3 C
03.11.2011 00:30 10,4 C 92 % 1006 hPa 0,0 l/m 14,3 km/h (3 Bft) S45 175 0 min 0 lux 0 min 9,2 C 5,9 C
03.11.2011 00:45 10,4 C 92 % 1006 hPa 0,0 l/m 16,5 km/h (3 Bft) S22.5 170 0 min 0 lux 0 min 9,2 C 5,0 C
03.11.2011 01:00 10,3 C 92 % 1006 hPa 0,0 l/m 14,1 km/h (3 Bft) S-SO22.5 165 0 min 0 lux 0 min 9,1 C 5,9 C
03.11.2011 01:15 10,2 C 93 % 1006 hPa 0,0 l/m 17,1 km/h (3 Bft) S22.5 175 0 min 0 lux 0 min 9,1 C 4,5 C
03.11.2011 01:30 10,2 C 93 % 1005 hPa 0,0 l/m 13,4 km/h (3 Bft) S22.5 185 0 min 0 lux 0 min 9,1 C 6,1 C
03.11.2011 01:45 10,3 C 93 % 1005 hPa 0,0 l/m 18,0 km/h (3 Bft) S22.5 170 0 min 0 lux 0 min 9,2 C 4,3 C
03.11.2011 02:00 10,4 C 93 % 1005 hPa 0,0 l/m 23,5 km/h (4 Bft) S45 180 0 min 0 lux 0 min 9,3 C 2,8 C
03.11.2011 02:15 10,7 C 93 % 1005 hPa 0,0 l/m 25,3 km/h (4 Bft) S22.5 170 0 min 0 lux 0 min 9,6 C 2,7 C
03.11.2011 02:30 10,7 C 93 % 1005 hPa 0,0 l/m 22,1 km/h (4 Bft) S22.5 170 0 min 0 lux 0 min 9,6 C 3,6 C
03.11.2011 02:45 10,7 C 93 % 1005 hPa 0,0 l/m 20,6 km/h (4 Bft) S22.5 175 0 min 0 lux 0 min 9,6 C 4,0 C
03.11.2011 03:00 10,8 C 92 % 1005 hPa 0,0 l/m 26,8 km/h (4 Bft) S22.5 175 0 min 0 lux 0 min 9,6 C 2,5 C
03.11.2011 03:15 10,8 C 92 % 1005 hPa 0,0 l/m 23,8 km/h (4 Bft) S22.5 180 0 min 0 lux 0 min 9,6 C 3,2 C
03.11.2011 03:30 10,8 C 92 % 1005 hPa 0,0 l/m 31,6 km/h (5 Bft) S45 180 0 min 0 lux 0 min 9,6 C 1,5 C
03.11.2011 03:45 10,8 C 91 % 1005 hPa 0,0 l/m 23,2 km/h (4 Bft) S67.5 185 0 min 0 lux 0 min 9,4 C 3,4 C
03.11.2011 04:00 10,8 C 91 % 1005 hPa 0,0 l/m 28,9 km/h (5 Bft) S22.5 180 0 min 0 lux 0 min 9,4 C 2,0 C
03.11.2011 04:15 10,8 C 91 % 1005 hPa 0,0 l/m 25,0 km/h (4 Bft) S-SW22.5 195 0 min 0 lux 0 min 9,4 C 2,9 C
03.11.2011 04:30 10,8 C 90 % 1005 hPa 0,0 l/m 23,1 km/h (4 Bft) S22.5 190 0 min 0 lux 0 min 9,2 C 3,4 C
03.11.2011 04:45 10,7 C 90 % 1005 hPa 0,0 l/m 20,0 km/h (4 Bft) S45 185 0 min 0 lux 0 min 9,1 C 4,2 C
03.11.2011 05:00 10,6 C 91 % 1005 hPa 0,0 l/m 23,1 km/h (4 Bft) S22.5 175 0 min 0 lux 0 min 9,2 C 3,1 C
03.11.2011 05:15 10,6 C 91 % 1005 hPa 0,0 l/m 25,0 km/h (4 Bft) S22.5 175 0 min 0 lux 0 min 9,2 C 2,6 C
03.11.2011 05:30 10,6 C 90 % 1005 hPa 0,0 l/m 19,7 km/h (3 Bft) S45 170 0 min 0 lux 0 min 9,0 C 4,2 C
03.11.2011 05:45 10,8 C 90 % 1005 hPa 0,0 l/m 20,6 km/h (4 Bft) S22.5 175 0 min 0 lux 0 min 9,2 C 4,1 C
03.11.2011 06:00 10,8 C 90 % 1004 hPa 0,0 l/m 19,5 km/h (3 Bft) S45 180 0 min 0 lux 0 min 9,2 C 4,5 C
03.11.2011 06:15 10,9 C 89 % 1004 hPa 0,0 l/m 23,4 km/h (4 Bft) S45 185 0 min 0 lux 0 min 9,2 C 3,5 C
03.11.2011 06:30 11,2 C 88 % 1004 hPa 0,0 l/m 25,0 km/h (4 Bft) S22.5 175 0 min 0 lux 0 min 9,3 C 3,5 C
03.11.2011 06:45 11,4 C 87 % 1004 hPa 0,0 l/m 23,2 km/h (4 Bft) S22.5 175 0 min 0 lux 0 min 9,3 C 4,2 C
03.11.2011 07:00 11,3 C 87 % 1004 hPa 0,0 l/m 25,3 km/h (4 Bft) S22.5 180 0 min 0 lux 0 min 9,2 C 3,5 C
03.11.2011 07:15 11,2 C 87 % 1004 hPa 0,0 l/m 18,5 km/h (3 Bft) S22.5 180 0 min 44 lux 0 min 9,1 C 5,3 C
03.11.2011 07:30 11,4 C 86 % 1004 hPa 0,0 l/m 23,3 km/h (4 Bft) S22.5 175 0 min 474 lux 0 min 9,1 C 4,2 C
03.11.2011 07:45 11,4 C 86 % 1004 hPa 0,0 l/m 19,6 km/h (3 Bft) S22.5 170 0 min 1,08 klux 0 min 9,1 C 5,2 C
03.11.2011 08:01 11,3 C 86 % 1004 hPa 0,0 l/m 18,1 km/h (3 Bft) S22.5 170 0 min 4,12 klux 0 min 9,0 C 5,6 C
03.11.2011 08:15 11,5 C 85 % 1004 hPa 0,0 l/m 24,5 km/h (4 Bft) S-SO22.5 160 0 min 5,53 klux 0 min 9,1 C 4,0 C
03.11.2011 08:30 11,6 C 85 % 1004 hPa 0,0 l/m 25,9 km/h (4 Bft) S22.5 170 0 min 10,4 klux 0 min 9,2 C 3,8 C
03.11.2011 08:45 11,9 C 84 % 1004 hPa 0,0 l/m 21,9 km/h (4 Bft) S45 180 0 min 9,4 klux 0 min 9,3 C 5,2 C
03.11.2011 09:00 12,1 C 83 % 1004 hPa 0,0 l/m 21,1 km/h (4 Bft) S45 175 0 min 14,1 klux 0 min 9,3 C 5,7 C
03.11.2011 09:16 12,4 C 83 % 1004 hPa 0,0 l/m 19,6 km/h (3 Bft) S22.5 170 0 min 11,9 klux 0 min 9,6 C 6,5 C
03.11.2011 09:31 12,5 C 82 % 1004 hPa 0,0 l/m 21,6 km/h (4 Bft) S45 170 0 min 12,7 klux 0 min 9,5 C 6,1 C
03.11.2011 09:45 12,8 C 81 % 1004 hPa 0,0 l/m 25,3 km/h (4 Bft) S45 170 0 min 11,5 klux 0 min 9,6 C 5,6 C
03.11.2011 10:00 13,1 C 80 % 1004 hPa 0,0 l/m 28,6 km/h (4 Bft) S45 180 0 min 16,7 klux 0 min 9,7 C 5,3 C
03.11.2011 10:15 13,4 C 79 % 1004 hPa 0,0 l/m 26,8 km/h (4 Bft) S45 175 0 min 16,4 klux 0 min 9,8 C 6,1 C
03.11.2011 10:30 13,6 C 77 % 1004 hPa 0,0 l/m 27,5 km/h (4 Bft) S67.5 175 0 min 16,2 klux 0 min 9,6 C 6,2 C
03.11.2011 10:46 13,6 C 77 % 1004 hPa 0,0 l/m 34,8 km/h (5 Bft) S-SO22.5 165 0 min 14,8 klux 0 min 9,6 C 4,9 C
03.11.2011 11:01 13,5 C 76 % 1004 hPa 0,0 l/m 31,3 km/h (5 Bft) S67.5 180 0 min 9,4 klux 0 min 9,4 C 5,3 C
03.11.2011 11:15 13,1 C 79 % 1005 hPa 0,0 l/m 42,2 km/h (6 Bft) S67.5 185 0 min 5,83 klux 0 min 9,5 C 3,2 C
03.11.2011 11:30 12,3 C 82 % 1005 hPa 0,0 l/m 30,1 km/h (5 Bft) S22.5 170 0 min 8,97 klux 0 min 9,3 C 3,9 C
03.11.2011 11:45 12,2 C 85 % 1005 hPa 0,0 l/m 28,2 km/h (4 Bft) S-SO22.5 165 0 min 12,1 klux 0 min 9,8 C 4,1 C
03.11.2011 12:00 12,0 C 85 % 1005 hPa 0,0 l/m 30,8 km/h (5 Bft) S22.5 185 0 min 7,12 klux 0 min 9,6 C 3,3 C
03.11.2011 12:16 11,8 C 86 % 1005 hPa 0,0 l/m 22,1 km/h (4 Bft) S22.5 180 0 min 2,81 klux 0 min 9,5 C 5,0 C
03.11.2011 12:31 11,7 C 87 % 1005 hPa 0,0 l/m 26,6 km/h (4 Bft) S22.5 175 0 min 3,23 klux 0 min 9,6 C 3,8 C
03.11.2011 12:45 11,4 C 89 % 1005 hPa 0,0 l/m 26,8 km/h (4 Bft) S22.5 170 0 min 4,45 klux 0 min 9,7 C 3,3 C
03.11.2011 13:00 11,2 C 90 % 1005 hPa 0,0 l/m 26,1 km/h (4 Bft) S-SO45 165 0 min 4,76 klux 0 min 9,6 C 3,2 C
03.11.2011 13:15 11,2 C 91 % 1004 hPa 0,0 l/m 23,7 km/h (4 Bft) S-SO22.5 165 0 min 5,35 klux 0 min 9,8 C 3,8 C
03.11.2011 13:30 11,2 C 91 % 1005 hPa 0,0 l/m 29,1 km/h (5 Bft) S22.5 170 0 min 7,04 klux 0 min 9,8 C 2,5 C
03.11.2011 13:46 11,3 C 91 % 1004 hPa 0,3 l/m 28,6 km/h (4 Bft) S-SO22.5 165 0 min 8,67 klux 16 min 9,9 C 2,8 C
03.11.2011 14:01 11,3 C 91 % 1005 hPa 0,0 l/m 25,8 km/h (4 Bft) S-SO45 160 0 min 6,01 klux 0 min 9,9 C 3,4 C
03.11.2011 14:15 11,2 C 92 % 1004 hPa 0,0 l/m 31,7 km/h (5 Bft) S22.5 170 0 min 5,88 klux 0 min 9,9 C 2,0 C
03.11.2011 14:30 11,1 C 92 % 1004 hPa 0,0 l/m 23,4 km/h (4 Bft) S-SO45 165 0 min 4,15 klux 0 min 9,8 C 3,7 C
03.11.2011 14:45 10,9 C 93 % 1004 hPa 0,0 l/m 34,5 km/h (5 Bft) S-SO45 165 0 min 3,93 klux 0 min 9,8 C 1,1 C
03.11.2011 15:00 10,8 C 93 % 1004 hPa 0,0 l/m 28,5 km/h (4 Bft) S-SO22.5 160 0 min 3,92 klux 0 min 9,7 C 2,1 C
03.11.2011 15:16 10,9 C 94 % 1004 hPa 0,3 l/m 19,1 km/h (3 Bft) S45 170 0 min 6,41 klux 16 min 10,0 C 4,7 C
03.11.2011 15:31 11,0 C 94 % 1004 hPa 0,0 l/m 19,8 km/h (3 Bft) S22.5 175 0 min 10,3 klux 0 min 10,1 C 4,6 C
03.11.2011 15:45 11,2 C 93 % 1004 hPa 0,0 l/m 15,8 km/h (3 Bft) S-SO22.5 165 0 min 9,8 klux 0 min 10,1 C 6,3 C
03.11.2011 16:00 11,2 C 93 % 1004 hPa 0,0 l/m 19,8 km/h (3 Bft) S22.5 170 0 min 6,50 klux 0 min 10,1 C 4,9 C
03.11.2011 16:15 11,2 C 93 % 1004 hPa 0,0 l/m 19,5 km/h (3 Bft) S22.5 175 0 min 2,68 klux 0 min 10,1 C 5,0 C
03.11.2011 16:30 11,1 C 92 % 1004 hPa 0,0 l/m 17,6 km/h (3 Bft) S-SO22.5 165 0 min 1,90 klux 0 min 9,8 C 5,5 C
03.11.2011 16:46 11,1 C 91 % 1003 hPa 0,0 l/m 17,9 km/h (3 Bft) S-SO45 165 0 min 1,14 klux 0 min 9,7 C 5,4 C
03.11.2011 17:01 11,0 C 91 % 1003 hPa 0,0 l/m 12,5 km/h (3 Bft) S-SO22.5 165 0 min 539 lux 0 min 9,6 C 7,4 C
03.11.2011 17:15 11,0 C 90 % 1003 hPa 0,0 l/m 12,7 km/h (3 Bft) S22.5 180 0 min 240 lux 0 min 9,4 C 7,3 C
03.11.2011 17:30 11,0 C 89 % 1003 hPa 0,0 l/m 10,0 km/h (2 Bft) S22.5 180 0 min 39 lux 0 min 9,3 C 8,7 C
03.11.2011 17:45 11,2 C 88 % 1003 hPa 0,0 l/m 17,8 km/h (3 Bft) S-SO22.5 160 0 min 7 lux 0 min 9,3 C 5,6 C
03.11.2011 18:00 11,3 C 87 % 1003 hPa 0,0 l/m 16,4 km/h (3 Bft) S-SO22.5 160 0 min 0 lux 0 min 9,2 C 6,2 C
03.11.2011 18:16 11,4 C 86 % 1003 hPa 0,0 l/m 16,3 km/h (3 Bft) S-SO22.5 155 0 min 0 lux 0 min 9,1 C 6,3 C
03.11.2011 18:31 11,7 C 84 % 1003 hPa 0,0 l/m 26,0 km/h (4 Bft) S-SO22.5 160 0 min 0 lux 0 min 9,1 C 3,9 C
03.11.2011 18:45 12,0 C 83 % 1003 hPa 0,0 l/m 25,1 km/h (4 Bft) S-SO45 160 0 min 0 lux 0 min 9,2 C 4,5 C
03.11.2011 19:00 12,0 C 82 % 1003 hPa 0,0 l/m 21,7 km/h (4 Bft) S-SO45 150 0 min 0 lux 0 min 9,0 C 5,4 C
03.11.2011 19:15 12,4 C 80 % 1003 hPa 0,0 l/m 31,4 km/h (5 Bft) S-SO45 165 0 min 0 lux 0 min 9,0 C 3,8 C
03.11.2011 19:30 12,6 C 79 % 1003 hPa 0,0 l/m 32,3 km/h (5 Bft) S45 175 0 min 0 lux 0 min 9,1 C 3,9 C
03.11.2011 19:46 12,5 C 80 % 1003 hPa 0,0 l/m 23,7 km/h (4 Bft) S22.5 175 0 min 0 lux 0 min 9,1 C 5,5 C
03.11.2011 20:01 12,3 C 81 % 1003 hPa 0,0 l/m 19,0 km/h (3 Bft) S22.5 170 0 min 0 lux 0 min 9,1 C 6,6 C
03.11.2011 20:15 12,0 C 81 % 1003 hPa 0,0 l/m 11,8 km/h (2 Bft) S-SO22.5 165 0 min 0 lux 0 min 8,8 C 8,9 C
03.11.2011 20:30 12,0 C 81 % 1002 hPa 0,0 l/m 11,3 km/h (2 Bft) S-SO 160 0 min 0 lux 0 min 8,8 C 9,1 C
03.11.2011 20:45 11,9 C 81 % 1002 hPa 0,0 l/m 15,0 km/h (3 Bft) S-SO22.5 160 0 min 0 lux 0 min 8,7 C 7,4 C
03.11.2011 21:00 11,7 C 81 % 1002 hPa 0,0 l/m 6,9 km/h (2 Bft) S-SO22.5 160 0 min 0 lux 0 min 8,5 C 11,4 C
03.11.2011 21:16 11,6 C 81 % 1002 hPa 0,0 l/m 18,5 km/h (3 Bft) S-SO22.5 155 0 min 0 lux 0 min 8,5 C 5,8 C
03.11.2011 21:31 11,4 C 82 % 1002 hPa 0,0 l/m 13,8 km/h (3 Bft) SO22.5 140 0 min 0 lux 0 min 8,4 C 7,3 C
03.11.2011 21:30 11,4 C 82 % 1002 hPa 0,0 l/m 13,8 km/h (3 Bft) SO22.5 140 0 min 0 lux 0 min 8,4 C 7,3 C
03.11.2011 21:45 11,1 C 80 % 1002 hPa 0,0 l/m 17,3 km/h (3 Bft) S-SO45 160 0 min 0 lux 0 min 7,8 C 5,6 C
03.11.2011 22:00 10,8 C 79 % 1002 hPa 0,0 l/m 21,1 km/h (4 Bft) S-SO22.5 165 0 min 0 lux 0 min 7,3 C 4,0 C
03.11.2011 22:16 10,7 C 79 % 1002 hPa 0,0 l/m 16,9 km/h (3 Bft) S-SO45 155 0 min 0 lux 0 min 7,2 C 5,2 C
03.11.2011 22:31 10,5 C 78 % 1002 hPa 0,0 l/m 19,2 km/h (3 Bft) S-SO22.5 160 0 min 0 lux 0 min 6,8 C 4,2 C
03.11.2011 22:45 10,5 C 78 % 1002 hPa 0,0 l/m 17,9 km/h (3 Bft) S-SO22.5 150 0 min 0 lux 0 min 6,8 C 4,6 C
03.11.2011 23:00 10,4 C 78 % 1002 hPa 0,0 l/m 17,0 km/h (3 Bft) S-SO67.5 155 0 min 0 lux 0 min 6,7 C 4,8 C
03.11.2011 23:15 10,4 C 78 % 1002 hPa 0,0 l/m 17,2 km/h (3 Bft) S-SO45 160 0 min 0 lux 0 min 6,7 C 4,8 C
03.11.2011 23:30 10,5 C 77 % 1002 hPa 0,0 l/m 15,8 km/h (3 Bft) S-SO22.5 155 0 min 0 lux 0 min 6,6 C 5,4 C
03.11.2011 23:46 10,5 C 77 % 1002 hPa 0,0 l/m 21,6 km/h (4 Bft) S-SW67.5 195 0 min 0 lux 0 min 6,6 C 3,4 C
03.11.2011 23:45 10,5 C 77 % 1002 hPa 0,0 l/m 21,6 km/h (4 Bft) S-SW67.5 195 0 min 0 lux 0 min 6,6 C 3,4 C
_ Min-Zeit 01:15 11:01 20:30 - 21:00 - - - - - 23:30 14:45
Minimum _ 10,2 C 76 % 1002 hPa - 6,9 km/h (2 Bft) - - - - - 6,6 C 1,1 C
_ Max-Zeit 10:30 15:16 00:00 13:46 11:15 - - 00:00 10:00 13:46 15:45 21:00
Maximum _ 13,6 C 94 % 1006 hPa 0,3 l/m 42,2 km/h
S (6 Bft)
- - 0 min 16,7 klux 16 min 10,1 C 11,4 C
Durchschnitt _ 11,3 C 87 % 1004 hPa #0,6 l/m 22,0 km/h (4 Bft) S - #0 min. 3,01 klux #32 min. 9,2 C 4,7 C